Find OrbAstro-TR5

NORAD ID: 63236 Int'l Des: 2025-052 Owner: ORBAS/LIFTE Country: UK operational
LEOCIRCULARRETROGRADESSO

当前视图

正在加载3D地球...

关于 OrbAstro-TR5

正在加载描述...

即将过境

Passes for default location (London). Set your location on the main map for personalized predictions.

高度历史

Loading altitude history...

两行轨道根数

1 63236U 25052AC 26146.20842070 .00004778 00000-0 21321-3 0 9994
2 63236 97.3869 38.2716 0002622 203.6328 156.4788 15.21851867 66473
Epoch: May 26, 2026 • Age: 15 hours

当前状态

高度 503.9 km
速度 7.61 km/s
星下点 -11.91°S, 32.25°E
发射日期 Mar 15, 2025
运行时间 1.1 years
类型 other

技术详情

分类 Payload
质量 10.00 kg
干质量 10.00 kg
总质量 10.00 kg
长度 0.30 m
直径 0.10 m
跨度 0.30 m
形状 Box
制造商 ORBAS
平台类型 Cubesat 6U
阶段状态 In Orbit
所有者/国家 ORBAS/LIFTE/UK

Most Searched